Regional Weather Roundup
Issued by NWS

Home | Current Version | Previous Version | Text Only | Print | Product List | Glossary Off
Versions: 1 2 3 4 5 6 7 8 9 10 11 12 13 14 15 16 17 18 19 20 21 22 23 24 25 26 27 28 29 30 31 32 33 34 35 36 37 38 39 40 41 42 43 44 45 46 47 48 49 50

000
ASUS45 KCYS 311910
RWRWY

WYOMING REGIONAL WEATHER ROUNDUP
NATIONAL WEATHER SERVICE CHEYENNE WY
100 PM MDT SUN AUG 31 2014

NOTE:  "FAIR" INDICATES FEW OR NO CLOUDS BELOW 12,000 FEET
WITH NO SIGNIFICANT WEATHER AND/OR OBSTRUCTIONS TO VISIBILITY.

WYZ001-312000-
YELLOWSTONE NATIONAL PARK

CITY           SKY/WX    TMP DP  RH WIND       PRES   REMARKS
LK YELLOWSTONE   N/A     46  41  82 VRB3      30.10S
W YELLOWSTONE  NOT AVBL

$$
WYZ002>013-054>058-071-098>099-312000-
NORTHERN WYOMING

CITY           SKY/WX    TMP DP  RH WIND       PRES   REMARKS
JACKSON          N/A     54  43  66 SW5       30.07S
CODY             N/A    N/A N/A N/A MISG        N/A
GREYBULL       CLOUDY    61  32  33 E3        29.88F
WORLAND        CLOUDY    63  47  55 W6        29.90S
SHERIDAN       CLOUDY    65  47  52 N8        29.87S
BUFFALO        LGT RAIN  54  48  80 NW14G26   29.92R
GILLETTE       LGT RAIN  56  49  77 NW12      29.86S
HULETT         CLOUDY    61  52  72 MISG      29.86
NEWCASTLE      FAIR      66  45  45 NW3       29.82

$$
WYZ014>020-022>026-101>103-312000-
CENTRAL WYOMING

CITY           SKY/WX    TMP DP  RH WIND       PRES   REMARKS
BIG PINEY      MOSUNNY   59  35  40 NW18      30.08S
PINEDALE       CLOUDY    54  36  50 W16G22    30.08S
DUBOIS         FAIR      54  37  54 N16G23    30.02S
LANDER         MOSUNNY   63  47  55 VRB5      29.90F
RIVERTON       PTSUNNY   64  45  49 NE9       29.93S
CASPER         MOSUNNY   71  39  31 W14G22    29.86F
DOUGLAS        PTSUNNY   70  43  37 W18G31    29.86S

$$
WYZ021-027>030-104>119-312000-
SOUTHERN WYOMING

CITY           SKY/WX    TMP DP  RH WIND       PRES   REMARKS
EVANSTON       MOSUNNY   61  37  41 W23       30.12S
KEMMERER       CLEAR     59  36  41 W20G28    30.11S
FORT BRIDGER   CLOUDY    64  41  42 W17G24    30.12F
ROCK SPRINGS   PTSUNNY   64  39  39 W23G38    30.06S
DIXON          CLOUDY    57  46  67 SE7       30.10S
RAWLINS        MOSUNNY   63  42  46 W25G37    30.01S
SARATOGA       FAIR      59  45  58 W21       30.06F
LARAMIE        CLOUDY    54  42  64 W16       30.04F
CHEYENNE       LGT RAIN  54  43  66 NW12      29.95F
TORRINGTON     CLOUDY    68  53  58 SW16G22   29.85F
PINE BLUFFS    CLOUDY    64  45  48 NW29G36   29.96R

$$



USA.gov is the U.S. government's official web portal to all federal, state and local government web resources and services.